Regional Weather Roundup
Issued by NWS

Home | Current Version | Previous Version | Text Only | Print | Product List | Glossary On
Versions: 1 2 3 4 5 6 7 8 9 10 11 12 13 14 15 16 17 18 19 20 21 22 23 24 25 26 27 28 29 30 31 32 33 34 35 36 37 38 39 40 41 42 43 44 45 46 47 48
000
ASUS45 KREV 252210
RWRNV
NEVADA REGIONAL WEATHER ROUNDUP
NATIONAL WEATHER SERVICE RENO NV
200 PM PST THU DEC 25 2014

NOTE: "FAIR" INDICATES FEW OR NO CLOUDS BELOW 12,000 FEET WITH NO
SIGNIFICANT WEATHER AND/OR OBSTRUCTIONS TO VISIBILITY.

NVZ001-003-004-252300-
WESTERN NEVADA

CITY           SKY/WX    TMP DP  RH WIND       PRES   REMARKS
RENO           PTSUNNY   36  19  50 NW14      30.02F
CARSON CITY    CLOUDY    34  18  51 N13       30.02F
MINDEN         PTSUNNY   32  19  59 NW5       30.03S
SLIDE MTN        N/A     12   9  85 N16         N/A  WCI  -4
PYRAMID LAKE     N/A     37 N/A N/A NW8         N/A
FALLON         MOSUNNY   40  18  41 N22G29    29.99R
LOVELOCK       SUNNY     39  21  48 N23G32    29.97F
HAWTHORNE      SUNNY     39  18  41 NW18G26   29.99S
$$

NVZ002-CAZ072-073-252300-
NORTHERN AND CENTRAL SIERRA

CITY           SKY/WX    TMP DP  RH WIND       PRES   REMARKS
S. LAKE TAHOE  PTSUNNY   30  11  45 NE14G25   29.96F
TRUCKEE        PTSUNNY   27  18  69 NE12      29.99F
SQUAW VLY 8000   N/A     18  14  86 VRB13       N/A
SUSANVILLE     PTSUNNY   43  21  42 N12       30.04F
BLUE CANYON    PTSUNNY   35  13  40 NE8G17    29.99F
MAMMOTH LAKES  CLOUDY    28   9  43 CALM      29.92S
BRIDGEPORT     FAIR      25   9  50 NE9G18    29.91F
$$

NVZ030-031-036-252300-
NORTHERN NEVADA

CITY           SKY/WX    TMP DP  RH WIND       PRES   REMARKS
ELKO           CLOUDY    28  16  60 NW16      29.85R
WINNEMUCCA     MOSUNNY   36  18  48 NW17      29.95F
WENDOVER       CLOUDY    32  19  59 NW16G23   29.77R
$$

NVZ035-037-252300-
CENTRAL NEVADA

CITY           SKY/WX    TMP DP  RH WIND       PRES   REMARKS
ELY            CLOUDY    24  14  65 NW21      29.75R
EUREKA           N/A     24  19  81 N17       29.83R
$$

NVZ013-014-252300-
SOUTH CENTRAL NEVADA

CITY           SKY/WX    TMP DP  RH WIND       PRES   REMARKS
TONOPAH        LGT SNOW  28  20  71 NW26G33   29.87R VSB 1
$$

NVZ017-020-022-252300-
SOUTHERN NEVADA

CITY           SKY/WX    TMP DP  RH WIND       PRES   REMARKS
LAS VEGAS      MOSUNNY   52   6  15 NW21G30   29.78S
N. LAS VEGAS   PTSUNNY   51   6  16 N21G26    29.80S
NELLIS AFB     PTSUNNY   53  10  17 NW25      29.80S
HENDERSON      SUNNY     48   8  19 NW20G29   29.82S
MERCURY        MOSUNNY   46   9  22 NW25G33   29.83F
$$



USA.gov is the U.S. government's official web portal to all federal, state and local government web resources and services.